Погода в Абаге Центральной

Россия / Республика Саха (Якутия)     60°18′37″N   119°59′15″E
темп.,
°C
ветер,
м/с
пор.,
м/с
влажн.,
%
обл.,
%
осадки,
мм/ч
давл.,
гПа
погр.,
м
27 февраля, сб
сб2700:00−24сз1195100 0.0 102320
03:00−24ссз1194100 0.0 102220
06:00−24зсз1294100 0.0 102220
09:00−22зсз1198100 0.1 102392
12:00−19зсз4693100 0.6 1022706
15:00−19зсз6988100 1.0 1022995
18:00−20сз51092100 0.3 1024900
21:00−21зсз51189100 0.3 1025715
28 февраля, вс
вс2800:00−22зсз41182100 0.0 1026575
03:00−25з51185100 0.0 1027410
06:00−30з389199 0.0 1030154
09:00−31зюз229290 0.0 103172
12:00−23з510784 0.0 10321260
15:00−22з597452 0.0 10321469
18:00−24з2384100 0.0 103361
21:00−29зюз229283 0.0 103319
1 марта, пн
пн100:00−32зюз12935 0.0 103419
03:00−33зюз129610 0.0 103419
06:00−34зюз119928 0.0 103419
09:00−34юз119727 0.0 103419
12:00−27зюз128324 0.0 1032320
15:00−22зсз247552 0.0 1030929
18:00−26юз1184100 0.0 102920
21:00−31юз119470 0.0 102919
2 марта, вт
вт200:00−32ююв009491 0.0 102819
03:00−34в0110091 0.0 102719
06:00−35св1110090 0.0 102619
09:00−35св1110085 0.0 102519
12:00−28св229390 0.0 1023283
15:00−24св238995 0.0 1021363
18:00−26с2292100 0.0 102121
21:00−28ссв2295100 0.0 102237
3 марта, ср
ср300:00−32ссв129786 0.0 102220
03:00−33ссв129893 0.0 102220
06:00−35с129999 0.0 102319
09:00−35ссз119699 0.0 102422
12:00−28ссв238798 0.0 1023375
15:00−24с348399 0.0 1023662
18:00−27ссз3389100 0.0 102453
21:00−33сз229287 0.0 102619